Showing default

DROID.002, 63223

Orbit data source: Space-Track

DROID.002, 63223 is a payload satellite owned by Turion Space (US) in SSO that was launched on Sat, 15 Mar 2025 UTC via an FALCON 9 launch vehicle from the Air Force Western Test Range (AFWTR). Payload-class satellites include a variety of spacecraft equipped with specific instruments for various scientific and technological missions. These include communications satellites like Starlink; space stations such as the ISS; scientific satellites like the Hubble; Earth observation satellites from companies like Planet Labs, Umbra, and HawkEye 360; GPS; miniature CubeSats for education and research; and military/defense satellites.

Loading next visibility...
Identifier
63223, 2025-052P
Orbit
SSO
Country
Flag of USUS
Related business
Manufacturer
Turion Space
Mission
Operational Commercial Technology
Bus & Motor
DROID, Unknown motor
Mass
90 kg wet, 90 kg dry
Launch date (UTC)
2025-03-15 (1 year ago)
Launch vehicle
FALCON 9
Launch site
Air Force Western Test Range (AFWTR)
Object type
Payload
Rocket body
Debris
Shape & HBR
Box + 2 Pan, 0.8 m
Radar Cross Section
0.892 m², Large (>1 m²)

Expand to show TLE details & history
Last TLE update: 8 hours ago

TLE from 8 hours ago
0 DROID.002
1 63223U 25052P   26129.70578291  .00004475  00000-0  19426-3 0  9994
2 63223  97.3971  23.1409 0002053 272.8939  87.2063 15.22831840 64014
Epoch: 2026-05-09T16:56Z
TLE epoch observation values (Epoch: 2026-05-09T16:56:19.643Z)
Latitude
0.00001°
Longitude
-98.46032°
Altitude
500.33 km
Speed
7.614 km/s
True Right ascension
01h 32m 33s
True Declination
0° 00' 00"
Sunlit
Object was in daylight at epoch
Visualization orbit readout
Latitude
Unknown
Longitude
Unknown
Altitude
Unknown
Speed
Unknown
Apparent Right ascension
Unknown
Apparent Declination
Unknown
Sunlit
N/A
Visualization observer readout
Local Sidereal Time
09:29:47
Azimuth
Unknown
Elevation
Unknown
Doppler factor
Unknown
Orbital elements
Apogee altitude
495.676 km
Perigee altitude
492.854 km
Semi-major axis
6,872.402 km
Eccentricity
0.00021
Inclination
97.3971°
RAAN
23.1409°
Arg. of periapsis
272.8939°
True anomaly
87.2298°
Mean anomaly
87.2063°
Eccentric anomaly
87.21805°
Mean motion
3.80961 °/min
Orbital period
94.5 mins
BSTAR
0.00019426
Loading maneuver chart data...
Computing Atmospheric mass density...
Loading historical data...
Loading historical data...
Loading historical data...
Loading historical data...
Loading historical data...
Loading historical data...
Loading historical data...

Documentation

Showing up to 5 results
|